North Myrtle Beach, SC

2:08 PM EDT on June 25, 2017 (GMT -0400)
Grand Strand

Weather History for KCRE - July, 2013

Change the Weather History Date:

Monday, July 1, 2013

  Actual Average Record
Temperature  
Mean Temperature 78 °F 80 °F  
Max Temperature 83 °F 87 °F 101 °F (1990)
Min Temperature 73 °F 72 °F 62 °F (1955)
Degree Days  
Heating Degree Days 0 0  
Month to date heating degree days 0 0  
Since 1 June heating degree days 0 0  
Since 1 July heating degree days 0 0  
Cooling Degree Days 13 15  
Month to date cooling degree days 13 15  
Year to date cooling degree days 580 584  
Since 1 June cooling degree days 400 372  
Growing Degree Days 28 (Base 50)    
Moisture  
Dew Point 73 °F    
Average Humidity 87    
Maximum Humidity 94    
Minimum Humidity 79    
Precipitation  
Precipitation 1.73 in 0.18 in 1.73 in (2013)
Month to date precipitation 1.73 0.18  
Year to date precipitation 31.62 22.22  
Sea Level Pressure  
Sea Level Pressure 29.95 in    
Wind  
Wind Speed 15 mph (SSW)    
Max Wind Speed 29 mph    
Max Gust Speed 39 mph    
Visibility 8 miles    
Events Fog , Rain , Thunderstorm    
T = Trace of Precipitation, MM = Missing Value Source: NWS Daily Summary

Daily Weather History Graph

Daily Weather History Graph

Search for Another Location

Airport or City:

Trip Planner

Search our weather history database for the weather conditions in past years. The results will help you decide how hot, cold, wet, or windy it might be!

Date:

Astronomy

Jul. 01, 2013 Rise Set
Actual Time 6:07 AM EDT 8:29 PM EDT
Civil Twilight 5:38 AM EDT 8:58 PM EDT
Nautical Twilight 5:03 AM EDT 9:34 PM EDT
Astronomical Twilight 4:24 AM EDT 10:13 PM EDT
Moon 1:25 AM EDT (7/1) 2:52 PM EDT (7/1)
Length of Visible Light 15h 19m
Length of Day
14h 21m
Waning Crescent, 35% of the Moon is Illuminated
Jul 1
Waning Crescent
Jul 8
New
Jul 15
First Quarter
Jul 22
Full
Jul 29
Last Quarter

Hourly Weather History & Observations

Time (EDT) Temp. Heat Index Dew Point Humidity Pressure Visibility Wind Dir Wind Speed Gust Speed Precip Events Conditions
12:53 AM 78.1 °F - 73.9 °F 87% 29.88 in 10.0 mi SSW 16.1 mph 23.0 mph N/A   Scattered Clouds
1:53 AM 79.0 °F - 73.0 °F 82% 29.88 in 10.0 mi SSW 15.0 mph 21.9 mph N/A   Scattered Clouds
2:12 AM 78.8 °F - 73.4 °F 83% 29.88 in 10.0 mi SSW 16.1 mph 25.3 mph N/A   Mostly Cloudy
2:27 AM 78.8 °F - 73.4 °F 83% 29.88 in 10.0 mi SSW 12.7 mph - N/A   Scattered Clouds
2:34 AM 78.8 °F - 75.2 °F 89% 29.88 in 10.0 mi SSW 13.8 mph 21.9 mph N/A   Mostly Cloudy
2:53 AM 79.0 °F - 73.9 °F 84% 29.88 in 10.0 mi SSW 17.3 mph 25.3 mph N/A   Mostly Cloudy
3:53 AM 79.0 °F - 75.0 °F 88% 29.86 in 10.0 mi South 12.7 mph 21.9 mph N/A   Overcast
4:39 AM 75.2 °F - 71.6 °F 89% 29.88 in 1.8 mi SSW 20.7 mph 39.1 mph 0.19 in Rain Heavy Rain
4:48 AM 75.2 °F - 73.4 °F 94% 29.88 in 3.0 mi South 18.4 mph 25.3 mph 0.21 in Rain Light Rain
4:53 AM 75.0 °F - 72.0 °F 90% 29.89 in 7.0 mi SSW 25.3 mph 33.4 mph 0.21 in Rain , Thunderstorm Light Thunderstorms and Rain
5:00 AM 75.2 °F - 71.6 °F 89% 29.89 in 7.0 mi SSW 23.0 mph 33.4 mph 0.02 in Rain , Thunderstorm Thunderstorms and Rain
5:10 AM 75.2 °F - 71.6 °F 89% 29.89 in 7.0 mi SSW 24.2 mph 31.1 mph 0.03 in Rain Light Rain
5:31 AM 75.2 °F - 71.6 °F 89% 29.89 in 9.0 mi South 18.4 mph 32.2 mph 0.04 in Rain Light Rain
5:41 AM 75.2 °F - 73.4 °F 94% 29.90 in 7.0 mi South 21.9 mph 31.1 mph 0.05 in Rain Rain
5:53 AM 75.9 °F - 73.0 °F 91% 29.91 in 5.0 mi SSW 15.0 mph 26.5 mph 0.09 in Rain Rain
6:16 AM 75.2 °F - 73.4 °F 94% 29.90 in 10.0 mi SSW 15.0 mph 21.9 mph 0.01 in Rain Light Rain
6:53 AM 78.1 °F - 73.9 °F 87% 29.92 in 10.0 mi SSW 13.8 mph 21.9 mph 0.01 in   Overcast
7:53 AM 77.0 °F - 73.0 °F 88% 29.92 in 9.0 mi SSW 13.8 mph - 0.00 in   Mostly Cloudy
8:50 AM 80.6 °F 85.4 °F 73.4 °F 79% 29.92 in 10.0 mi South 10.4 mph - N/A   Overcast
8:53 AM 80.1 °F 84.5 °F 73.9 °F 81% 29.93 in 10.0 mi South 15.0 mph 20.7 mph N/A   Mostly Cloudy
9:25 AM 78.8 °F - 71.6 °F 78% 29.93 in 10.0 mi South 12.7 mph - N/A   Mostly Cloudy
9:53 AM 80.1 °F 84.2 °F 73.0 °F 79% 29.94 in 10.0 mi South 13.8 mph - N/A   Scattered Clouds
10:00 AM 80.6 °F 85.4 °F 73.4 °F 79% 29.93 in 10.0 mi SSW 13.8 mph - N/A   Mostly Cloudy
10:41 AM 80.6 °F 86.2 °F 75.2 °F 84% 29.94 in 10.0 mi South 11.5 mph - N/A Thunderstorm Mostly Cloudy
10:53 AM 81.0 °F 86.7 °F 75.0 °F 82% 29.94 in 10.0 mi South 15.0 mph 20.7 mph N/A Thunderstorm Mostly Cloudy
11:00 AM 80.6 °F 86.2 °F 75.2 °F 84% 29.94 in 10.0 mi South 12.7 mph - N/A   Overcast
11:40 AM 80.6 °F 86.2 °F 75.2 °F 84% 29.93 in 9.0 mi South 12.7 mph - N/A   Overcast
11:53 AM 82.0 °F 89.4 °F 75.9 °F 82% 29.94 in 10.0 mi South 13.8 mph 20.7 mph N/A   Mostly Cloudy
12:06 PM 80.6 °F 86.2 °F 75.2 °F 84% 29.93 in 10.0 mi South 12.7 mph 20.7 mph N/A   Mostly Cloudy
12:36 PM 82.4 °F 89.5 °F 75.2 °F 79% 29.95 in 10.0 mi South 15.0 mph 23.0 mph N/A   Scattered Clouds
12:53 PM 82.0 °F 89.4 °F 75.9 °F 82% 29.96 in 10.0 mi South 12.7 mph 20.7 mph N/A   Mostly Cloudy
1:08 PM 80.6 °F 86.2 °F 75.2 °F 84% 29.96 in 10.0 mi WSW 12.7 mph - N/A   Overcast
1:37 PM 73.4 °F - 71.6 °F 94% 29.98 in 1.2 mi SW 13.8 mph - 0.46 in Rain Light Rain
1:41 PM 73.4 °F - 71.6 °F 94% 29.98 in 0.5 mi WSW 8.1 mph - 0.65 in Fog , Rain Heavy Rain
1:49 PM 73.4 °F - 71.6 °F 94% 29.96 in 0.5 mi North 5.8 mph - 0.83 in Fog , Rain Heavy Rain
1:53 PM 73.0 °F - 71.1 °F 93% 29.97 in 0.8 mi Calm Calm - 0.87 in Rain Rain
2:06 PM 73.4 °F - 71.6 °F 94% 29.96 in 2.0 mi Calm Calm - 0.08 in Rain Light Rain
2:13 PM 73.4 °F - 71.6 °F 94% 29.97 in 10.0 mi SSE 5.8 mph - 0.08 in Rain Light Rain
2:45 PM 73.4 °F - 71.6 °F 94% 29.96 in 9.0 mi Variable 3.5 mph - 0.10 in Rain Light Rain
2:53 PM 75.9 °F - 73.0 °F 91% 29.96 in 8.0 mi SSE 10.4 mph - 0.10 in Rain Light Rain
3:02 PM 78.8 °F - 75.2 °F 89% 29.95 in 6.0 mi South 15.0 mph 21.9 mph 0.00 in Rain Light Rain
3:45 PM 77.0 °F - 73.4 °F 89% 29.96 in 9.0 mi South 11.5 mph 21.9 mph 0.04 in Rain Light Rain
3:53 PM 75.9 °F - 73.0 °F 91% 29.97 in 10.0 mi South 12.7 mph 21.9 mph 0.04 in Rain Light Rain
4:16 PM 75.2 °F - 71.6 °F 89% 29.96 in 1.8 mi South 15.0 mph 23.0 mph 0.10 in Rain Heavy Rain
4:25 PM 77.0 °F - 73.4 °F 89% 29.96 in 4.0 mi South 13.8 mph - 0.10 in Rain Light Rain
4:53 PM 78.1 °F - 75.0 °F 90% 29.97 in 9.0 mi South 13.8 mph 24.2 mph 0.10 in   Overcast
5:23 PM 78.8 °F - 73.4 °F 83% 29.97 in 10.0 mi South 15.0 mph 25.3 mph N/A   Partly Cloudy
5:53 PM 79.0 °F - 73.0 °F 82% 29.98 in 10.0 mi South 15.0 mph 23.0 mph N/A   Partly Cloudy
6:53 PM 79.0 °F - 73.9 °F 84% 29.99 in 10.0 mi South 12.7 mph 23.0 mph N/A   Mostly Cloudy
7:06 PM 78.8 °F - 73.4 °F 83% 29.98 in 10.0 mi South 16.1 mph 23.0 mph N/A   Mostly Cloudy
7:28 PM 78.8 °F - 73.4 °F 83% 29.98 in 10.0 mi South 16.1 mph 26.5 mph N/A   Overcast
7:40 PM 78.8 °F - 73.4 °F 83% 29.98 in 10.0 mi South 13.8 mph 23.0 mph N/A   Overcast
7:53 PM 79.0 °F - 73.9 °F 84% 29.99 in 10.0 mi South 13.8 mph 21.9 mph N/A   Mostly Cloudy
8:53 PM 79.0 °F - 73.0 °F 82% 30.01 in 10.0 mi South 15.0 mph 26.5 mph 0.00 in   Mostly Cloudy
9:10 PM 78.8 °F - 73.4 °F 83% 30.02 in 10.0 mi South 21.9 mph 34.5 mph N/A   Overcast
9:49 PM 75.2 °F - 73.4 °F 94% 30.03 in 5.0 mi SSW 20.7 mph 31.1 mph 0.04 in Rain Rain
9:53 PM 77.0 °F - 73.9 °F 90% 30.04 in 5.0 mi SSW 19.6 mph 31.1 mph 0.05 in Rain Rain
10:03 PM 77.0 °F - 73.4 °F 89% 30.03 in 7.0 mi SSW 16.1 mph 26.5 mph 0.01 in Rain Light Rain
10:19 PM 77.0 °F - 73.4 °F 89% 30.04 in 10.0 mi South 17.3 mph 26.5 mph 0.01 in   Overcast
10:36 PM 78.8 °F - 73.4 °F 83% 30.05 in 10.0 mi SSW 18.4 mph 24.2 mph 0.01 in Rain Light Rain
10:46 PM 78.8 °F - 73.4 °F 83% 30.05 in 9.0 mi SSW 20.7 mph 32.2 mph 0.01 in   Overcast
10:53 PM 78.1 °F - 73.9 °F 87% 30.05 in 5.0 mi South 19.6 mph 32.2 mph 0.02 in Rain Rain
10:58 PM 78.8 °F - 73.4 °F 83% 30.05 in 7.0 mi SSW 19.6 mph 27.6 mph 0.00 in Rain , Thunderstorm Light Rain
11:15 PM 78.8 °F - 73.4 °F 83% 30.05 in 10.0 mi SSW 24.2 mph 32.2 mph 0.00 in   Overcast
11:53 PM 75.9 °F - 73.0 °F 91% 30.06 in 6.0 mi SSW 19.6 mph 27.6 mph 0.18 in Rain Rain